Year,Month,Day,Hour,Minute,Value (Times are PST for temperature in C)
2016,07,23,00,00,16.70
2016,07,23,00,01,16.70
2016,07,23,00,02,16.70
2016,07,23,00,03,16.70
2016,07,23,00,04,16.70
2016,07,23,00,05,16.70
2016,07,23,00,06,16.70
2016,07,23,00,07,16.70
2016,07,23,00,08,16.70
2016,07,23,00,09,16.70
2016,07,23,00,10,16.70
2016,07,23,00,11,16.70
2016,07,23,00,12,16.70
2016,07,23,00,13,16.70
2016,07,23,00,14,16.70
2016,07,23,00,15,16.70
2016,07,23,00,16,16.70
2016,07,23,00,17,16.70
2016,07,23,00,18,16.70
2016,07,23,00,19,16.70
2016,07,23,00,20,16.70
2016,07,23,00,21,16.70
2016,07,23,00,22,16.70
2016,07,23,00,23,16.70
2016,07,23,00,24,16.70
2016,07,23,00,25,16.70
2016,07,23,00,26,16.70
2016,07,23,00,27,16.70
2016,07,23,00,28,16.70
2016,07,23,00,29,16.70
2016,07,23,00,30,16.70
2016,07,23,00,31,16.70
2016,07,23,00,32,16.70
2016,07,23,00,33,16.70
2016,07,23,00,34,16.70
2016,07,23,00,35,16.70
2016,07,23,00,36,16.60
2016,07,23,00,37,16.60
2016,07,23,00,38,16.60
2016,07,23,00,39,16.60
2016,07,23,00,40,16.60
2016,07,23,00,41,16.40
2016,07,23,00,42,16.40
2016,07,23,00,43,16.40
2016,07,23,00,44,16.40
2016,07,23,00,46,16.40
2016,07,23,00,47,16.40
2016,07,23,00,48,16.40
2016,07,23,00,49,16.40
2016,07,23,00,50,16.40
2016,07,23,00,51,16.30
2016,07,23,00,52,16.30
2016,07,23,00,53,16.30
2016,07,23,00,54,16.30
2016,07,23,00,55,16.30
2016,07,23,01,24,15.80
2016,07,23,01,26,15.80
2016,07,23,01,27,15.70
2016,07,23,01,28,15.70
2016,07,23,01,29,15.70
2016,07,23,01,31,15.60
2016,07,23,01,32,15.60
2016,07,23,01,33,15.60
2016,07,23,01,34,15.50
2016,07,23,01,36,15.50
2016,07,23,01,37,15.50
2016,07,23,01,38,15.40
2016,07,23,01,39,15.40
2016,07,23,01,41,15.30
2016,07,23,01,42,15.30
2016,07,23,01,43,15.30
2016,07,23,01,44,15.30
2016,07,23,01,46,15.30
2016,07,23,01,47,15.30
2016,07,23,01,48,15.30
2016,07,23,01,49,15.20
2016,07,23,01,51,15.20
2016,07,23,01,52,15.20
2016,07,23,01,53,15.20
2016,07,23,01,54,15.10
2016,07,23,01,56,15.10
2016,07,23,01,57,15.10
2016,07,23,01,58,15.10
2016,07,23,01,59,15.10
2016,07,23,02,01,15.00
2016,07,23,02,02,15.00
2016,07,23,02,03,15.00
2016,07,23,02,04,15.00
2016,07,23,02,06,14.90
2016,07,23,02,07,14.90
2016,07,23,02,08,14.90
2016,07,23,02,09,14.90
2016,07,23,02,11,14.80
2016,07,23,02,12,14.80
2016,07,23,02,13,14.80
2016,07,23,02,14,14.80
2016,07,23,02,15,14.80
2016,07,23,02,16,14.80
2016,07,23,02,17,14.80
2016,07,23,02,18,14.80
2016,07,23,02,19,14.80
2016,07,23,02,20,14.80
2016,07,23,02,21,14.70
2016,07,23,02,22,14.70
2016,07,23,02,23,14.70
2016,07,23,02,24,14.70
2016,07,23,02,25,14.70
2016,07,23,02,26,14.60
2016,07,23,02,27,14.60
2016,07,23,02,28,14.60
2016,07,23,02,29,14.60
2016,07,23,02,30,14.60
2016,07,23,02,31,14.60
2016,07,23,02,32,14.50
2016,07,23,02,33,14.50
2016,07,23,02,34,14.50
2016,07,23,02,35,14.50
2016,07,23,02,36,14.50
2016,07,23,02,37,14.50
2016,07,23,02,38,14.50
2016,07,23,02,39,14.50
2016,07,23,02,40,14.40
2016,07,23,02,41,14.40
2016,07,23,02,42,14.40
2016,07,23,02,43,14.40
2016,07,23,02,44,14.40
2016,07,23,02,45,14.40
2016,07,23,02,46,14.40
2016,07,23,02,47,14.40
2016,07,23,02,48,14.40
2016,07,23,02,49,14.30
2016,07,23,02,50,14.30
2016,07,23,02,51,14.30
2016,07,23,02,52,14.30
2016,07,23,02,53,14.30
2016,07,23,02,54,14.30
2016,07,23,02,55,14.30
2016,07,23,02,56,14.20
2016,07,23,02,57,14.20
2016,07,23,02,58,14.20
2016,07,23,02,59,14.20
2016,07,23,03,00,14.20
2016,07,23,03,01,14.20
2016,07,23,03,02,14.20
2016,07,23,03,03,14.20
2016,07,23,03,04,14.20
2016,07,23,03,05,14.20
2016,07,23,03,06,14.20
2016,07,23,03,07,14.20
2016,07,23,03,08,14.20
2016,07,23,03,09,14.20
2016,07,23,03,10,14.20
2016,07,23,03,11,14.20
2016,07,23,03,12,14.20
2016,07,23,03,13,14.20
2016,07,23,03,14,14.20
2016,07,23,03,15,14.20
2016,07,23,03,16,14.20
2016,07,23,03,17,14.20
2016,07,23,03,18,14.20
2016,07,23,03,19,14.20
2016,07,23,03,20,14.20
2016,07,23,03,21,14.20
2016,07,23,03,22,14.20
2016,07,23,03,23,14.20
2016,07,23,03,24,14.20
2016,07,23,03,25,14.20
2016,07,23,03,26,14.20
2016,07,23,03,27,14.20
2016,07,23,03,28,14.20
2016,07,23,03,29,14.20
2016,07,23,03,30,14.20
2016,07,23,03,31,14.20
2016,07,23,03,32,14.20
2016,07,23,03,33,14.20
2016,07,23,03,34,14.20
2016,07,23,03,35,14.20
2016,07,23,03,36,14.20
2016,07,23,03,37,14.20
2016,07,23,03,38,14.20
2016,07,23,03,39,14.20
2016,07,23,03,40,14.20
2016,07,23,03,42,14.20
2016,07,23,03,43,14.10
2016,07,23,03,44,14.10
2016,07,23,03,46,14.10
2016,07,23,03,47,14.10
2016,07,23,03,48,14.10
2016,07,23,03,49,14.10
2016,07,23,03,51,14.10
2016,07,23,03,52,14.00
2016,07,23,03,53,14.00
2016,07,23,03,54,14.00
2016,07,23,03,56,14.00
2016,07,23,03,57,14.00
2016,07,23,03,58,14.00
2016,07,23,03,59,14.00
2016,07,23,04,01,14.00
2016,07,23,04,02,14.00
2016,07,23,04,03,14.00
2016,07,23,04,04,14.00
2016,07,23,04,06,14.00
2016,07,23,04,07,14.00
2016,07,23,04,08,14.00
2016,07,23,04,09,14.00
2016,07,23,04,11,13.90
2016,07,23,04,12,13.90
2016,07,23,04,13,13.90
2016,07,23,04,14,13.90
2016,07,23,04,16,13.90
2016,07,23,04,17,13.90
2016,07,23,04,18,13.90
2016,07,23,04,19,13.90
2016,07,23,04,21,13.90
2016,07,23,04,22,13.90
2016,07,23,04,23,14.00
2016,07,23,04,24,14.00
2016,07,23,04,26,14.00
2016,07,23,04,27,14.00
2016,07,23,04,28,14.00
2016,07,23,04,29,14.00
2016,07,23,04,31,14.00
2016,07,23,04,32,14.00
2016,07,23,04,33,14.00
2016,07,23,04,34,14.00
2016,07,23,04,36,14.10
2016,07,23,04,37,14.10
2016,07,23,04,38,14.10
2016,07,23,04,39,14.10
2016,07,23,04,41,14.10
2016,07,23,04,42,14.10
2016,07,23,04,43,14.10
2016,07,23,04,44,14.10
2016,07,23,04,46,14.10
2016,07,23,04,47,14.20
2016,07,23,04,48,14.20
2016,07,23,04,49,14.20
2016,07,23,04,51,14.20
2016,07,23,04,52,14.20
2016,07,23,04,53,14.20
2016,07,23,04,54,14.20
2016,07,23,04,55,14.20
2016,07,23,04,56,14.20
2016,07,23,04,57,14.20
2016,07,23,04,58,14.20
2016,07,23,04,59,14.20
2016,07,23,05,00,14.20
2016,07,23,05,01,14.20
2016,07,23,05,02,14.20
2016,07,23,05,03,14.20
2016,07,23,05,04,14.20
2016,07,23,05,06,14.20
2016,07,23,05,07,14.20
2016,07,23,05,08,14.20
2016,07,23,05,09,14.20
2016,07,23,05,10,14.20
2016,07,23,05,11,14.20
2016,07,23,05,12,14.20
2016,07,23,05,13,14.20
2016,07,23,05,14,14.20
2016,07,23,05,15,14.20
2016,07,23,05,16,14.20
2016,07,23,05,17,14.20
2016,07,23,05,18,14.20
2016,07,23,05,19,14.20
2016,07,23,05,20,14.20
2016,07,23,05,21,14.20
2016,07,23,05,22,14.20
2016,07,23,05,23,14.20
2016,07,23,05,24,14.20
2016,07,23,05,25,14.20
2016,07,23,05,26,14.20
2016,07,23,05,27,14.30
2016,07,23,05,28,14.30
2016,07,23,05,29,14.30
2016,07,23,05,30,14.30
2016,07,23,05,31,14.30
2016,07,23,05,32,14.30
2016,07,23,05,33,14.30
2016,07,23,05,34,14.30
2016,07,23,05,35,14.30
2016,07,23,05,36,14.30
2016,07,23,05,37,14.40
2016,07,23,05,38,14.40
2016,07,23,05,39,14.40
2016,07,23,05,40,14.40
2016,07,23,05,41,14.40
2016,07,23,05,42,14.40
2016,07,23,05,43,14.50
2016,07,23,05,44,14.50
2016,07,23,05,45,14.50
2016,07,23,05,46,14.50
2016,07,23,05,47,14.50
2016,07,23,05,48,14.50
2016,07,23,05,49,14.60
2016,07,23,05,50,14.60
2016,07,23,05,51,14.60
2016,07,23,05,52,14.60
2016,07,23,05,53,14.60
2016,07,23,05,54,14.60
2016,07,23,05,55,14.70
2016,07,23,05,56,14.70
2016,07,23,05,57,14.70
2016,07,23,05,58,14.70
2016,07,23,05,59,14.70
2016,07,23,06,00,14.70
2016,07,23,06,01,14.80
2016,07,23,06,02,14.80
2016,07,23,06,03,14.80
2016,07,23,06,04,14.80
2016,07,23,06,05,14.80
2016,07,23,06,06,14.80
2016,07,23,06,07,14.80
2016,07,23,06,08,14.80
2016,07,23,06,09,14.80
2016,07,23,06,10,14.80
2016,07,23,06,11,14.80
2016,07,23,06,12,14.80
2016,07,23,06,13,14.80
2016,07,23,06,14,14.80
2016,07,23,06,15,14.80
2016,07,23,06,16,14.80
2016,07,23,06,17,14.90
2016,07,23,06,18,14.90
2016,07,23,06,19,14.90
2016,07,23,06,20,14.90
2016,07,23,06,21,14.90
2016,07,23,06,22,14.90
2016,07,23,06,24,14.90
2016,07,23,06,26,14.90
2016,07,23,06,27,14.90
2016,07,23,06,28,15.00
2016,07,23,06,29,15.00
2016,07,23,06,31,15.00
2016,07,23,06,32,15.00
2016,07,23,06,33,15.00
2016,07,23,06,34,15.00
2016,07,23,06,36,15.10
2016,07,23,06,37,15.10
2016,07,23,06,38,15.10
2016,07,23,06,39,15.10
2016,07,23,06,41,15.10
2016,07,23,06,42,15.20
2016,07,23,06,43,15.20
2016,07,23,06,44,15.20
2016,07,23,06,46,15.20
2016,07,23,06,47,15.20
2016,07,23,06,48,15.20
2016,07,23,06,49,15.30
2016,07,23,06,51,15.30
2016,07,23,06,52,15.30
2016,07,23,06,53,15.30
2016,07,23,06,54,15.30
2016,07,23,06,56,15.30
2016,07,23,06,57,15.30
2016,07,23,06,58,15.30
2016,07,23,06,59,15.30
2016,07,23,07,01,15.40
2016,07,23,07,02,15.40
2016,07,23,07,03,15.40
2016,07,23,07,04,15.50
2016,07,23,07,06,15.50
2016,07,23,07,07,15.50
2016,07,23,07,08,15.50
2016,07,23,07,09,15.60
2016,07,23,07,11,15.60
2016,07,23,07,12,15.60
2016,07,23,07,13,15.60
2016,07,23,07,14,15.60
2016,07,23,07,16,15.70
2016,07,23,07,17,15.70
2016,07,23,07,18,15.70
2016,07,23,07,19,15.70
2016,07,23,07,21,15.80
2016,07,23,07,22,15.80
2016,07,23,07,23,15.80
2016,07,23,07,24,15.80
2016,07,23,07,26,15.80
2016,07,23,07,27,15.80
2016,07,23,07,28,15.80
2016,07,23,07,29,15.80
2016,07,23,07,31,15.80
2016,07,23,07,32,15.80
2016,07,23,07,33,15.80
2016,07,23,07,34,15.80
2016,07,23,07,36,15.80
2016,07,23,07,37,15.80
2016,07,23,07,38,15.80
2016,07,23,07,39,15.80
2016,07,23,07,40,15.80
2016,07,23,07,41,15.80
2016,07,23,07,42,15.80
2016,07,23,07,43,15.80
2016,07,23,07,44,15.90
2016,07,23,07,45,15.90
2016,07,23,07,46,15.90
2016,07,23,07,47,15.90
2016,07,23,07,48,15.90
2016,07,23,07,49,15.90
2016,07,23,07,50,15.90
2016,07,23,07,51,16.10
2016,07,23,07,52,16.10
2016,07,23,07,53,16.10
2016,07,23,07,54,16.10
2016,07,23,07,55,16.10
2016,07,23,07,56,16.10
2016,07,23,07,57,16.10
2016,07,23,07,58,16.10
2016,07,23,07,59,16.10
2016,07,23,08,00,16.20
2016,07,23,08,01,16.20
2016,07,23,08,02,16.20
2016,07,23,08,03,16.20
2016,07,23,08,04,16.20
2016,07,23,08,05,16.20
2016,07,23,08,06,16.30
2016,07,23,08,07,16.30
2016,07,23,08,08,16.30
2016,07,23,08,09,16.30
2016,07,23,08,10,16.30
2016,07,23,08,11,16.30
2016,07,23,08,12,16.30
2016,07,23,08,13,16.30
2016,07,23,08,14,16.30
2016,07,23,08,15,16.40
2016,07,23,08,16,16.40
2016,07,23,08,17,16.40
2016,07,23,08,18,16.40
2016,07,23,08,19,16.40
2016,07,23,08,20,16.40
2016,07,23,08,21,16.40
2016,07,23,08,22,16.40
2016,07,23,08,23,16.40
2016,07,23,08,24,16.40
2016,07,23,08,25,16.60
2016,07,23,08,26,16.60
2016,07,23,08,27,16.60
2016,07,23,08,28,16.60
2016,07,23,08,29,16.60
2016,07,23,08,30,16.60
2016,07,23,08,31,16.70
2016,07,23,08,32,16.70
2016,07,23,08,33,16.70
2016,07,23,08,34,16.70
2016,07,23,08,35,16.70
2016,07,23,08,36,16.70
2016,07,23,08,37,16.70
2016,07,23,08,38,16.70
2016,07,23,08,39,16.70
2016,07,23,08,40,16.70
2016,07,23,08,41,16.70
2016,07,23,08,42,16.80
2016,07,23,08,43,16.80
2016,07,23,08,44,16.80
2016,07,23,08,45,16.80
2016,07,23,08,46,16.80
2016,07,23,08,47,16.90
2016,07,23,08,48,16.90
2016,07,23,08,49,16.90
2016,07,23,08,50,16.90
2016,07,23,08,51,17.00
2016,07,23,08,52,17.00
2016,07,23,08,53,17.00
2016,07,23,08,54,17.00
2016,07,23,08,55,17.10
2016,07,23,08,57,17.10
2016,07,23,08,58,17.10
2016,07,23,08,59,17.10
2016,07,23,09,01,17.20
2016,07,23,09,02,17.20
2016,07,23,09,03,17.20
2016,07,23,09,04,17.30
2016,07,23,09,06,17.30
2016,07,23,09,07,17.30
2016,07,23,09,08,17.30
2016,07,23,09,09,17.30
2016,07,23,09,11,17.40
2016,07,23,09,12,17.50
2016,07,23,09,13,17.50
2016,07,23,09,14,17.60
2016,07,23,09,16,17.70
2016,07,23,09,17,17.70
2016,07,23,09,18,17.80
2016,07,23,09,19,17.80
2016,07,23,09,21,17.90
2016,07,23,09,22,17.90
2016,07,23,09,23,17.90
2016,07,23,09,24,17.90
2016,07,23,09,26,18.10
2016,07,23,09,27,18.10
2016,07,23,09,28,18.20
2016,07,23,09,29,18.20
2016,07,23,09,31,18.20
2016,07,23,09,32,18.20
2016,07,23,09,33,18.20
2016,07,23,09,34,18.20
2016,07,23,09,36,18.20
2016,07,23,09,37,18.30
2016,07,23,09,38,18.30
2016,07,23,09,39,18.40
2016,07,23,09,41,18.50
2016,07,23,09,42,18.50
2016,07,23,09,43,18.60
2016,07,23,09,44,18.60
2016,07,23,09,46,18.70
2016,07,23,09,47,18.70
2016,07,23,09,48,18.80
2016,07,23,09,49,18.80
2016,07,23,09,51,18.90
2016,07,23,09,52,18.90
2016,07,23,09,53,18.90
2016,07,23,09,54,19.10
2016,07,23,09,56,19.20
2016,07,23,09,57,19.30
2016,07,23,09,58,19.40
2016,07,23,09,59,19.40
2016,07,23,10,01,19.60
2016,07,23,10,02,19.60
2016,07,23,10,03,19.70
2016,07,23,10,04,19.80
2016,07,23,10,06,19.90
2016,07,23,10,07,19.90
2016,07,23,10,08,19.90
2016,07,23,10,09,19.90
2016,07,23,10,10,19.90
2016,07,23,10,11,19.90
2016,07,23,10,12,20.10
2016,07,23,10,13,19.90
2016,07,23,10,14,19.90
2016,07,23,10,15,19.80
2016,07,23,10,16,19.80
2016,07,23,10,17,19.80
2016,07,23,10,18,19.70
2016,07,23,10,19,19.70
2016,07,23,10,20,19.70
2016,07,23,10,21,19.70
2016,07,23,10,22,19.70
2016,07,23,10,23,19.70
2016,07,23,10,24,19.70
2016,07,23,10,25,19.60
2016,07,23,10,26,19.60
2016,07,23,10,27,19.60
2016,07,23,10,28,19.60
2016,07,23,10,29,19.60
2016,07,23,10,30,19.60
2016,07,23,10,31,19.70
2016,07,23,10,32,19.70
2016,07,23,10,33,19.70
2016,07,23,10,34,19.70
2016,07,23,10,35,19.80
2016,07,23,10,36,19.80
2016,07,23,10,37,19.80
2016,07,23,10,38,19.90
2016,07,23,10,39,19.90
2016,07,23,10,40,19.90
2016,07,23,10,41,19.90
2016,07,23,10,42,20.10
2016,07,23,10,43,20.10
2016,07,23,10,44,20.10
2016,07,23,10,45,20.20
2016,07,23,10,46,20.20
2016,07,23,10,47,20.10
2016,07,23,10,48,19.90
2016,07,23,10,49,19.90
2016,07,23,10,50,19.90
2016,07,23,10,51,19.80
2016,07,23,10,52,19.80
2016,07,23,10,53,19.70
2016,07,23,10,54,19.70
2016,07,23,10,55,19.60
2016,07,23,10,56,19.60
2016,07,23,10,57,19.60
2016,07,23,10,58,19.60
2016,07,23,10,59,19.60
2016,07,23,11,00,19.60
2016,07,23,11,01,19.60
2016,07,23,11,02,19.60
2016,07,23,11,03,19.60
2016,07,23,11,04,19.70
2016,07,23,11,05,19.70
2016,07,23,11,06,19.70
2016,07,23,11,07,19.80
2016,07,23,11,08,19.80
2016,07,23,11,09,19.90
2016,07,23,11,10,19.90
2016,07,23,11,11,20.10
2016,07,23,11,12,20.10
2016,07,23,11,13,20.20
2016,07,23,11,14,20.20
2016,07,23,11,15,20.30
2016,07,23,11,16,20.40
2016,07,23,11,17,20.40
2016,07,23,11,18,20.40
2016,07,23,11,19,20.50
2016,07,23,11,20,20.50
2016,07,23,11,21,20.60
2016,07,23,11,22,20.60
2016,07,23,11,23,20.50
2016,07,23,11,24,20.50
2016,07,23,11,25,20.50
2016,07,23,11,26,20.40
2016,07,23,11,27,20.40
2016,07,23,11,28,20.40
2016,07,23,11,29,20.40
2016,07,23,11,30,20.40
2016,07,23,11,31,20.40
2016,07,23,11,32,20.50
2016,07,23,11,33,20.60
2016,07,23,11,34,20.60
2016,07,23,11,35,20.60
2016,07,23,11,36,20.70
2016,07,23,11,37,20.70
2016,07,23,11,38,20.70
2016,07,23,11,39,20.70
2016,07,23,11,40,20.70
2016,07,23,11,41,20.80
2016,07,23,11,42,20.80
2016,07,23,11,44,20.80
2016,07,23,11,46,20.90
2016,07,23,11,47,21.00
2016,07,23,11,48,21.00
2016,07,23,11,49,21.00
2016,07,23,11,51,21.20
2016,07,23,11,52,21.20
2016,07,23,11,53,21.30
2016,07,23,11,54,21.30
2016,07,23,11,56,21.30
2016,07,23,11,57,21.30
2016,07,23,11,58,21.30
2016,07,23,11,59,21.30
2016,07,23,12,01,21.40
2016,07,23,12,02,21.40
2016,07,23,12,03,21.60
2016,07,23,12,04,21.60
2016,07,23,12,06,21.60
2016,07,23,12,07,21.60
2016,07,23,12,08,21.60
2016,07,23,12,09,21.60
2016,07,23,12,11,21.70
2016,07,23,12,12,21.70
2016,07,23,12,13,21.80
2016,07,23,12,14,21.80
2016,07,23,12,16,21.80
2016,07,23,12,17,21.70
2016,07,23,12,18,21.70
2016,07,23,12,19,21.70
2016,07,23,12,21,21.70
2016,07,23,12,22,21.70
2016,07,23,12,23,21.70
2016,07,23,12,24,21.70
2016,07,23,12,26,21.80
2016,07,23,12,27,21.90
2016,07,23,12,28,21.90
2016,07,23,12,29,21.90
2016,07,23,12,31,21.90
2016,07,23,12,32,22.00
2016,07,23,12,33,22.00
2016,07,23,12,34,22.10
2016,07,23,12,36,22.10
2016,07,23,12,37,22.10
2016,07,23,12,38,22.20
2016,07,23,12,39,22.20
2016,07,23,12,41,22.30
2016,07,23,12,42,22.30
2016,07,23,12,43,22.40
2016,07,23,12,44,22.50
2016,07,23,12,46,22.50
2016,07,23,12,47,22.40
2016,07,23,12,48,22.30
2016,07,23,12,49,22.30
2016,07,23,12,51,22.00
2016,07,23,12,52,21.80
2016,07,23,12,53,21.70
2016,07,23,12,54,21.60
2016,07,23,12,55,21.40
2016,07,23,12,56,21.30
2016,07,23,12,57,21.30
2016,07,23,12,58,21.30
2016,07,23,12,59,21.20
2016,07,23,13,00,21.20
2016,07,23,13,01,21.20
2016,07,23,13,02,21.20
2016,07,23,13,03,21.30
2016,07,23,13,04,21.30
2016,07,23,13,06,21.60
2016,07,23,13,07,21.60
2016,07,23,13,08,21.80
2016,07,23,13,09,21.90
2016,07,23,13,10,22.10
2016,07,23,13,11,22.30
2016,07,23,13,12,22.40
2016,07,23,13,13,22.50
2016,07,23,13,14,22.60
2016,07,23,13,15,22.70
2016,07,23,13,16,22.70
2016,07,23,13,17,22.80
2016,07,23,13,18,22.70
2016,07,23,13,19,22.70
2016,07,23,13,20,22.60
2016,07,23,13,21,22.50
2016,07,23,13,22,22.40
2016,07,23,13,23,22.30
2016,07,23,13,24,22.20
2016,07,23,13,25,22.10
2016,07,23,13,26,22.00
2016,07,23,13,27,21.90
2016,07,23,13,28,21.80
2016,07,23,13,29,21.80
2016,07,23,13,30,21.70
2016,07,23,13,31,21.60
2016,07,23,13,32,21.60
2016,07,23,13,33,21.30
2016,07,23,13,34,21.30
2016,07,23,13,35,21.20
2016,07,23,13,36,21.10
2016,07,23,13,37,21.10
2016,07,23,13,38,21.00
2016,07,23,13,39,20.80
2016,07,23,13,40,20.70
2016,07,23,13,41,20.70
2016,07,23,13,42,20.60
2016,07,23,13,43,20.60
2016,07,23,13,44,20.60
2016,07,23,13,45,20.60
2016,07,23,13,46,20.60
2016,07,23,13,47,20.60
2016,07,23,13,48,20.60
2016,07,23,13,49,20.50
2016,07,23,13,50,20.40
2016,07,23,13,51,20.30
2016,07,23,13,52,20.30
2016,07,23,13,53,20.20
2016,07,23,13,54,20.20
2016,07,23,13,55,20.20
2016,07,23,13,56,20.20
2016,07,23,13,57,20.20
2016,07,23,13,58,20.20
2016,07,23,13,59,20.20
2016,07,23,14,00,20.20
2016,07,23,14,01,20.20
2016,07,23,14,02,20.20
2016,07,23,14,03,20.10
2016,07,23,14,04,20.10
2016,07,23,14,05,20.10
2016,07,23,14,06,20.20
2016,07,23,14,07,20.20
2016,07,23,14,08,20.20
2016,07,23,14,09,20.30
2016,07,23,14,10,20.40
2016,07,23,14,11,20.50
2016,07,23,14,12,20.60
2016,07,23,14,13,20.70
2016,07,23,14,14,20.80
2016,07,23,14,15,20.80
2016,07,23,14,16,20.90
2016,07,23,14,17,21.00
2016,07,23,14,18,21.00
2016,07,23,14,19,21.10
2016,07,23,14,20,21.20
2016,07,23,14,21,21.30
2016,07,23,14,22,21.30
2016,07,23,14,23,21.40
2016,07,23,14,24,21.60
2016,07,23,14,25,21.60
2016,07,23,14,26,21.70
2016,07,23,14,27,21.80
2016,07,23,14,28,22.00
2016,07,23,14,29,22.10
2016,07,23,14,30,22.20
2016,07,23,14,32,22.40
2016,07,23,14,33,22.50
2016,07,23,14,34,22.60
2016,07,23,14,36,22.80
2016,07,23,14,37,22.80
2016,07,23,14,38,22.90
2016,07,23,14,39,22.90
2016,07,23,14,41,22.90
2016,07,23,14,42,22.90
2016,07,23,14,43,22.90
2016,07,23,14,44,22.90
2016,07,23,14,46,22.90
2016,07,23,14,47,22.90
2016,07,23,14,48,22.90
2016,07,23,14,49,22.90
2016,07,23,14,51,23.10
2016,07,23,14,52,23.20
2016,07,23,14,53,23.30
2016,07,23,14,54,23.30
2016,07,23,14,56,23.30
2016,07,23,14,57,23.30
2016,07,23,14,58,23.30
2016,07,23,14,59,23.30
2016,07,23,15,01,23.30
2016,07,23,15,02,23.30
2016,07,23,15,03,23.20
2016,07,23,15,04,23.10
2016,07,23,15,06,22.90
2016,07,23,15,07,22.90
2016,07,23,15,08,22.80
2016,07,23,15,09,22.80
2016,07,23,15,11,22.60
2016,07,23,15,12,22.60
2016,07,23,15,13,22.60
2016,07,23,15,14,22.60
2016,07,23,15,16,22.60
2016,07,23,15,17,22.70
2016,07,23,15,18,22.70
2016,07,23,15,19,22.70
2016,07,23,15,21,22.70
2016,07,23,15,22,22.70
2016,07,23,15,23,22.60
2016,07,23,15,24,22.60
2016,07,23,15,26,22.60
2016,07,23,15,27,22.60
2016,07,23,15,28,22.60
2016,07,23,15,29,22.60
2016,07,23,15,31,22.60
2016,07,23,15,32,22.60
2016,07,23,15,33,22.70
2016,07,23,15,34,22.70
2016,07,23,15,36,22.70
2016,07,23,15,37,22.80
2016,07,23,15,38,22.80
2016,07,23,15,39,22.80
2016,07,23,15,41,22.90
2016,07,23,15,42,22.90
2016,07,23,15,43,22.90
2016,07,23,15,44,22.90
2016,07,23,15,45,22.90
2016,07,23,15,46,22.90
2016,07,23,15,47,22.90
2016,07,23,15,48,22.90
2016,07,23,15,49,22.90
2016,07,23,15,50,22.90
2016,07,23,15,51,22.80
2016,07,23,15,52,22.80
2016,07,23,15,53,22.70
2016,07,23,15,54,22.70
2016,07,23,15,55,22.60
2016,07,23,15,56,22.60
2016,07,23,15,57,22.50
2016,07,23,15,58,22.50
2016,07,23,15,59,22.50
2016,07,23,16,00,22.50
2016,07,23,16,01,22.50
2016,07,23,16,02,22.60
2016,07,23,16,03,22.60
2016,07,23,16,04,22.70
2016,07,23,16,05,22.70
2016,07,23,16,06,22.70
2016,07,23,16,07,22.80
2016,07,23,16,08,22.80
2016,07,23,16,09,22.80
2016,07,23,16,10,22.80
2016,07,23,16,11,22.80
2016,07,23,16,12,22.80
2016,07,23,16,13,22.90
2016,07,23,16,14,22.90
2016,07,23,16,15,22.90
2016,07,23,16,16,22.80
2016,07,23,16,17,22.80
2016,07,23,16,18,22.80
2016,07,23,16,19,22.80
2016,07,23,16,20,22.80
2016,07,23,16,21,22.80
2016,07,23,16,22,22.80
2016,07,23,16,23,22.70
2016,07,23,16,24,22.70
2016,07,23,16,25,22.70
2016,07,23,16,26,22.70
2016,07,23,16,27,22.70
2016,07,23,16,28,22.80
2016,07,23,16,29,22.80
2016,07,23,16,30,22.80
2016,07,23,16,31,22.80
2016,07,23,16,32,22.80
2016,07,23,16,33,22.90
2016,07,23,16,34,22.90
2016,07,23,16,35,22.90
2016,07,23,16,36,22.80
2016,07,23,16,37,22.80
2016,07,23,16,38,22.80
2016,07,23,16,39,22.70
2016,07,23,16,40,22.50
2016,07,23,16,41,22.40
2016,07,23,16,42,22.30
2016,07,23,16,43,22.10
2016,07,23,16,44,22.00
2016,07,23,16,45,22.00
2016,07,23,16,46,21.90
2016,07,23,16,47,21.90
2016,07,23,16,48,21.90
2016,07,23,16,49,21.80
2016,07,23,16,50,21.80
2016,07,23,16,51,21.80
2016,07,23,16,52,21.80
2016,07,23,16,53,21.80
2016,07,23,16,54,21.80
2016,07,23,16,55,21.60
2016,07,23,16,56,21.40
2016,07,23,16,57,21.30
2016,07,23,16,58,21.20
2016,07,23,16,59,21.10
2016,07,23,17,00,21.00
2016,07,23,17,01,20.90
2016,07,23,17,02,20.90
2016,07,23,17,03,20.90
2016,07,23,17,04,20.90
2016,07,23,17,05,20.90
2016,07,23,17,06,20.90
2016,07,23,17,07,21.00
2016,07,23,17,08,21.10
2016,07,23,17,09,21.10
2016,07,23,17,10,21.20
2016,07,23,17,11,21.20
2016,07,23,17,12,21.30
2016,07,23,17,13,21.30
2016,07,23,17,14,21.30
2016,07,23,17,16,21.40
2016,07,23,17,17,21.40
2016,07,23,17,18,21.60
2016,07,23,17,19,21.60
2016,07,23,17,21,21.70
2016,07,23,17,22,21.70
2016,07,23,17,23,21.70
2016,07,23,17,24,21.70
2016,07,23,17,26,21.70
2016,07,23,17,27,21.70
2016,07,23,17,28,21.70
2016,07,23,17,29,21.70
2016,07,23,17,31,21.70
2016,07,23,17,32,21.70
2016,07,23,18,24,21.60
2016,07,23,18,26,21.20
2016,07,23,18,27,20.90
2016,07,23,18,28,20.70
2016,07,23,18,29,20.60
2016,07,23,18,31,20.40
2016,07,23,18,32,20.30
2016,07,23,18,33,20.20
2016,07,23,18,34,20.20
2016,07,23,18,36,20.20
2016,07,23,18,37,20.10
2016,07,23,18,38,20.10
2016,07,23,18,39,19.90
2016,07,23,18,41,20.10
2016,07,23,18,42,20.10
2016,07,23,18,43,20.20
2016,07,23,18,44,20.20
2016,07,23,18,46,20.20
2016,07,23,18,47,20.20
2016,07,23,18,48,20.20
2016,07,23,18,49,20.30
2016,07,23,18,51,20.40
2016,07,23,18,52,20.50
2016,07,23,18,53,20.50
2016,07,23,18,54,20.50
2016,07,23,18,56,20.50
2016,07,23,18,57,20.50
2016,07,23,18,58,20.50
2016,07,23,18,59,20.50
2016,07,23,19,01,20.50
2016,07,23,19,02,20.60
2016,07,23,19,03,20.60
2016,07,23,19,04,20.60
2016,07,23,19,06,20.60
2016,07,23,19,07,20.50
2016,07,23,19,08,20.50
2016,07,23,19,09,20.50
2016,07,23,19,11,20.40
2016,07,23,19,12,20.30
2016,07,23,19,13,20.30
2016,07,23,19,14,20.30
2016,07,23,19,15,20.20
2016,07,23,19,16,20.20
2016,07,23,19,17,20.10
2016,07,23,19,18,20.10
2016,07,23,19,19,20.10
2016,07,23,19,20,20.10
2016,07,23,19,21,19.90
2016,07,23,19,22,19.90
2016,07,23,19,23,20.10
2016,07,23,19,24,20.10
2016,07,23,19,25,20.10
2016,07,23,19,26,20.10
2016,07,23,19,27,20.20
2016,07,23,19,28,20.20
2016,07,23,19,29,20.20
2016,07,23,19,30,20.20
2016,07,23,19,31,20.20
2016,07,23,19,32,20.30
2016,07,23,19,33,20.30
2016,07,23,19,34,20.40
2016,07,23,19,35,20.40
2016,07,23,19,36,20.40
2016,07,23,19,37,20.50
2016,07,23,19,38,20.50
2016,07,23,19,39,20.50
2016,07,23,19,40,20.50
2016,07,23,19,41,20.50
2016,07,23,19,42,20.50
2016,07,23,19,43,20.40
2016,07,23,19,44,20.40
2016,07,23,19,45,20.40
2016,07,23,19,46,20.40
2016,07,23,19,47,20.30
2016,07,23,19,48,20.30
2016,07,23,19,49,20.30
2016,07,23,19,50,20.30
2016,07,23,19,51,20.30
2016,07,23,19,52,20.30
2016,07,23,19,53,20.30
2016,07,23,19,54,20.20
2016,07,23,19,55,20.20
2016,07,23,19,56,20.20
2016,07,23,19,57,20.20
2016,07,23,19,58,20.20
2016,07,23,19,59,20.10
2016,07,23,20,00,19.90
2016,07,23,20,01,19.90
2016,07,23,20,02,19.90
2016,07,23,20,04,19.80
2016,07,23,20,05,19.80
2016,07,23,20,06,19.70
2016,07,23,20,07,19.60
2016,07,23,20,08,19.60
2016,07,23,20,09,19.50
2016,07,23,20,10,19.40
2016,07,23,20,11,19.30
2016,07,23,20,12,19.20
2016,07,23,20,13,19.10
2016,07,23,20,14,18.90
2016,07,23,20,15,18.90
2016,07,23,20,16,18.90
2016,07,23,20,17,18.80
2016,07,23,20,18,18.70
2016,07,23,20,19,18.70
2016,07,23,20,20,18.60
2016,07,23,20,21,18.60
2016,07,23,20,22,18.50